Location: Artiguedieu
(43.5000°N, 0.5454°E)
Time: 09:09:58
(UTC+00:00)

Vanguard 1 Rocket - Pass Details

Date: 29 July 2021
Orbit: 650 x 4226 km, 34.3° (Epoch: 24 September)

Event Time Altitude Azimuth Distance (km) Brightness Sun altitude
Rises 15:22:57 0° 271° (W) 5,085 12.0 41.6°
Reaches altitude 10° 15:27:32 10° 261° (W) 3,499 11.6 40.8°
Maximum altitude 15:33:52 26° 208° (SSW) 1,840 9.8 39.7°
Drops below altitude 10° 15:38:11 10° 152° (SSE) 2,315 9.5 39.0°
Sets 15:40:34 0° 138° (SE) 3,073 9.9 38.5°
